Regional Weather Roundup
Issued by NWS State College, PA

Home | Current Version | Previous Version | Text Only | Print | Product List | Glossary Off
Versions: 1 2 3 4 5 6 7 8 9 10 11 12 13 14 15 16 17 18 19 20 21 22 23 24 25 26 27 28 29 30 31 32 33 34 35 36 37 38 39 40 41 42 43 44 45 46 47 48 49 50

982
ASUS41 KCTP 221910
RWRCTP

REGIONAL WEATHER ROUNDUP
NATIONAL WEATHER SERVICE STATE COLLEGE PA
300 PM EDT SAT APR 22 2017

Note: "fair" indicates few or no clouds below 12,000 feet with no
significant weather and/or obstructions to visibility.

* = STATION THAT DOES NOT REPORT PRECIPITATION /E.G. RAIN...SNOW...ETC/
    THUNDER OR FOG.

PAZ002>004-007>009-013>016-020>023-029>032-222000-
WESTERN PENNSYLVANIA

CITY           SKY/WX    TMP DP  RH WIND       PRES   REMARKS
ERIE           CLOUDY    49  36  61 NE9       30.11F
MEADVILLE      CLOUDY    48  36  63 N12G17    30.08R
FRANKLIN*      CLOUDY    48  34  57 N5        30.07R
NEW CASTLE     MOCLDY    51  37  58 NE8G16    30.08S
BEAVER COUNTY  NOT AVBL
BUTLER*        CLOUDY    52  37  58 N7        30.08R
PITTSBURGH INT CLOUDY    51  37  58 N8        30.06R
PITTSBURGH     CLOUDY    52  36  54 NW10      30.03S
INDIANA*       MOSUNNY   50  37  62 N6G12     30.05S
LATROBE        MOSUNNY   50  37  62 VRB5      30.05S
WASHINGTON CO* CLOUDY    50  36  57 N9        30.06F
$$

PAZ004>006-010>012-017>019-024>028-033>037-041-042-045-046-049>053-222000-
CENTRAL PENNSYLVANIA

CITY           SKY/WX    TMP DP  RH WIND       PRES   REMARKS
BRADFORD       CLOUDY    48  35  60 NW9       30.01F
DUBOIS         CLOUDY    49  33  54 NW8       30.02R
CLEARFIELD     CLOUDY    54  35  48 NW9       30.00R
JOHNSTOWN      CLOUDY    46  37  71 NW8       30.00R
ALTOONA        CLOUDY    51  39  63 NW10      30.01R
STATE COLLEGE  NOT AVBL
WILLIAMSPORT   PTSUNNY   57  37  47 N12G20    29.97S
SELINSGROVE    CLOUDY    54  42  64 NE6       29.98S
FT INDIANTOWN  LGT RAIN  53  49  87 CALM      29.97S
CAPITAL CITY   CLOUDY    54  47  77 N7        29.98S
HARRISBURG     CLOUDY    53  49  86 NW3       29.97S
YORK           LGT RAIN  51  51 100 NW5       29.97S FOG
$$

PAZ038>040-043-044-047-048-054-055-060>062-067>071-222000-
EASTERN PENNSYLVANIA

CITY           SKY/WX    TMP DP  RH WIND       PRES   REMARKS
SCRANTON       CLOUDY    52  39  61 NW13      29.96S
MOUNT POCONO   CLOUDY    46  39  76 N9        29.93S
ALLENTOWN      LGT RAIN  54  45  71 N9        29.95S
QUAKERTOWN*    CLOUDY    54  48  82 NW3       29.96S
READING        CLOUDY    54  49  83 SW5       29.95S
LANCASTER      LGT RAIN  53  51  93 W7        29.97R
COATESVILLE    LGT RAIN  50  50 100 N5        29.98R
POTTSTOWN      LGT RAIN  52  49  89 NW3       29.97R FOG
BLUE BELL      CLOUDY    50  46  87 CALM      29.97S
DOYLESTOWN     LGT RAIN  52  50  93 N5        29.94S FOG
WILLOW GROVE   NOT AVBL
NORTH PHILA    LGT RAIN  55  51  86 NW7       29.96R FOG
PHILADELPHIA   LGT RAIN  55  50  83 NW12      29.96R
$$




USA.gov is the U.S. government's official web portal to all federal, state and local government web resources and services.